Current Conditions for Foresthill, CA. Clear skies, Dry   
Visibility: 10 miles
Foresthill Advisory text: No Warning

  Summary / Temperature 

Current Temperature
71.0°F
21.7°C
(24/hr Ago)
71.8°F
(Apparent temp)
68.4°F
Comfortable
Heat Index
70.7°F 

71.0°F/ 21.7°C
 --- Virtual Temp: 73.1°F ---

 Temp Rate:

 24/hr Difference:

 Avg Running Temp:

 Todays High:

 Todays Low:

 Y-days High:

 Y-days Low:

 Todays HeatIdx:

 Y-days HeatIdx:

 Evapotranspiration:

-0.5°F/hr 

-0.8°F

71.6°F

71.1°F 12:00am

71.0°F 12:09am

89.4°F 2:24pm

67.2°F 6:39am

70.8°F 12:00am

85.6°F 2:24pm

0.000 in

115' Above Ground

 Temperature:

 6'AGL VRS 115'AGL:

 Avg Running Temp:

 Humidity:

 Todays High:

 Todays Low:

 Y-days High:

 Y-days Low:

73.0°F 

+2°F

73.9°F

32% 

73.0°F 12:00am

73.0°F 12:00am

89.0°F 3:25pm

72.0°F 5:43am

Temp & Humidity Graphs

  Wind 

Wind Speed

 4.0 mph

Gusting to

 12.0 mph

Wind from ESE

106°  ESE

Light breeze

 Avg speed:

 Wind Run:

 Peak Gust:

  2.0 mph 

1.0 miles

  12.0 mph 12:03am

  Almanac  

Moon age: 26 days,1 hours,18 minutes,13%

Waning Crescent
13%
Illuminated
26 days in cycle

 Moonrise:

 Moonset:

 Sunrise:

 Sunset:

 Solar Noon:

3:41am

5:18pm

6:57am

6:52pm

12:54pm

2min 32s less daylight tomorrow 

  Solar Radiation 

(Current Solar)
  No Sun Light
(Todays High)
 None@12:00am

Rain

 Rain Today:

 Rain Rate (/hr):

 Rain last hour:

 Rain Yesterday:

 This Month:

 Season Total:

13 Days Since Last Rain Day

0.00 in

0.000 in

0.00 in

0.00 in

0.08 in

0.08 in

Updated Time

Updated: 9/27/16  12:16am

(Updated  sec ago)

Humidity & Barometer

 Humidity:

 Wetbulb:

 Dew Point:

 Barometer:

37% 

57.3°F 

43.4°F 

29.950 inHg 

 Baro Trend:  Steady 
Northern Calif
Preparedness
Fire 
Level 

    UV Index  

(Current UV)
0.0  None
(Todays High) @ 12:00am
0.0   None

Weather Underground 5 day Forecast

Tue Wed Thu Fri Sat
Clear Clear Clear Clear Clear
Clear Clear Clear Clear Clear
93° 89° 84° 76° 71°
66° 62° 58° 49° 46°

Foresthill Probe 2 Stats  
Foresthill Probe 2: is located on Thomas Street
at 3000 feet. The main Foresthill Weather site
is located on Melody ln at the 2860 foot elevation

Calm
67.8°F
19.9°C
Temp Rate:
-1.1°F
Calm
Gusting to
3.0 mph
(Humidity)
41%
Wind from ESE
116°  ESE
Updated: 27/09/16 - 00:13:27
 Todays High: 67.9°F 00:00
 Todays Low: 67.8°F 00:05
 Rain Today: 0.00 in
 Season Total: 0.04 in

Foresthill Wx: Monthly,Yearly, Highs and Lows 

Foresthill  
This Weather Data is coming from the main Foresthill
Weather site located on Melody ln at the 2860 foot
elevation
Not Foresthill Probe 2
Weather Data
Month
  High
Month
  Low
Year
High
Year
Low
Temp 91.0°F
9/19/16
46.0°F
9/22/16
96.7°F
7/27/16
28.4°F
2/1/16
Humidity 91%
9/13/16
13%
9/21/16
100%
1/6/16
12%
8/4/16
Heat Index 87.0°F
9/19/16
48.6°F
9/22/16
93.3°F
7/27/16
33.3°F
2/1/16
Wind Chill 91.0°F
9/19/16
41.1°F
9/22/16
96.7°F
7/27/16
15.8°F
2/1/16
Wind Gust 25 mph
9/12/16
0 mph
9/1/16
48 mph
2/17/16
0 mph
1/1/16
Barometer 30.18 in
9/23/16
29.73 in
9/3/16
30.56 in
2/3/16
29.44 in
2/17/16
ET 0.20 in
9/11/16
0.00 in
9/1/16
0.27 in
6/22/16
0.00 in
1/1/16
Dew Point 53.9°F
9/9/16
17.1°F
9/21/16
64.3°F
6/4/16
17.1°F
9/21/16
Infrared Satellite Regional Radar Satellite Imagery Sacramento,CA.  (click to enlarge)
NWS Weather Forecast - Summary
Updated: Monday, Sepember 26, 2016 - 2:55pm (PDT)
NWS Weather Forecast: Overnight and Tuesday (Updated: 2:21 pm PDT Sep 26, 2016)
Overnight

Overnight: Clear, with a low around 65. East northeast wind 3 to 7 mph.
Clear

Lo 65 °F
NWS forecast: Clear, with a low around 65. East northeast wind 3 to 7 mph.
Tuesday

Tuesday: Sunny, with a high near 92. East wind 5 to 9 mph becoming west southwest in the afternoon.
Sunny

Hi 92 °F
NWS forecast: Sunny, with a high near 92. East wind 5 to 9 mph becoming west southwest in the afternoon.
YR.NO 10 Day Weather forecast
Last update: 09/26/2016 @ 12:31
Next update: 09/27/2016 @ 01:00
Provided by: 22
      Temperature Precipitation Pressure Wind  
Tomorrow
09/26/2016
23:00 05:00 64°F   29.99 inHg Light breeze from east-northeast 4 mph
    (Click to enlarge)
meteogram

    Forecast for next 9 days

      Temperature Precip Pressure Wind  
Today 05:00 11:00 59°F   29.95 inHg Light breeze from east-northeast 7 mph
  11:00 17:00 84°F   29.94 inHg Light air from west-southwest 3 mph
  17:00 23:00 84°F   29.85 inHg Light breeze from west-southwest 4 mph
  23:00 05:00 66°F   29.90 inHg Light breeze from east 4 mph
      Temperature Precip Pressure Wind  
Wednesday
09/28/2016
05:00 11:00 61°F   29.88 inHg Light breeze from east-northeast 6 mph
  11:00 17:00 84°F   29.91 inHg Light breeze from southwest 6 mph
  17:00 23:00 81°F   29.88 inHg Gentle breeze from south-southwest 8 mph
  23:00 05:00 63°F   29.97 inHg Light breeze from east 5 mph
      Temperature Precip Pressure Wind  
Thursday
09/29/2016
05:00 11:00 61°F   29.98 inHg Light breeze from east 5 mph
  11:00 17:00 77°F   30.05 inHg Gentle breeze from south-southwest 9 mph
  17:00 23:00 75°F   30.00 inHg Light breeze from south-southwest 7 mph
  23:00 05:00 61°F   30.04 inHg Light breeze from east-southeast 5 mph
      Temperature Precip Pressure Wind  
Friday
09/30/2016
05:00 11:00 55°F   30.04 inHg Light breeze from east 5 mph
  11:00 17:00 73°F   30.06 inHg Light breeze from south-southwest 7 mph
  17:00 23:00 72°F   29.98 inHg Light breeze from southwest 7 mph
  23:00 05:00 57°F   30.01 inHg Light breeze from south-southeast 4 mph
      Temperature Precip Pressure Wind  
Saturday
10/01/2016
05:00 11:00 48°F   30.00 inHg Light air from southeast 2 mph
  11:00 17:00 63°F   30.02 inHg Light breeze from west-southwest 4 mph
  17:00 23:00 64°F   29.97 inHg Light breeze from west-southwest 5 mph
  23:00 05:00 50°F   29.98 inHg Light breeze from southeast 4 mph
      Temperature Precip Pressure Wind  
Sunday
10/02/2016
05:00 11:00 45°F   29.94 inHg Light air from southeast 3 mph
  11:00 17:00 54°F 0.06 in 30.01 inHg Light breeze from southwest 6 mph
  17:00 23:00 54°F   29.98 inHg Light breeze from west-southwest 4 mph
  23:00 05:00 46°F   30.00 inHg Light air from east 3 mph
      Temperature Precip Pressure Wind  
Monday
10/03/2016
05:00 11:00 45°F 0.13 in 29.96 inHg Light air from east-southeast 3 mph
  11:00 17:00 45°F 0.05 in 30.02 inHg Light breeze from southeast 6 mph
  17:00 23:00 48°F 0.06 in 29.91 inHg Light breeze from southeast 5 mph
  23:00 05:00 48°F 0.05 in 29.94 inHg Light air from southwest 1 mph
      Temperature Precip Pressure Wind  
Tuesday
10/04/2016
05:00 11:00 46°F   29.93 inHg Light air from north-northeast 1 mph
  11:00 17:00 59°F   29.96 inHg Light breeze from west-northwest 5 mph
  17:00 23:00 64°F   29.93 inHg Light breeze from west-northwest 7 mph
  23:00 05:00 50°F   29.99 inHg Light breeze from east-northeast 7 mph
      Temperature Precip Pressure Wind  
Wednesday
10/05/2016
05:00 11:00 46°F   29.99 inHg Light breeze from east-northeast 6 mph
  11:00 17:00 66°F   30.07 inHg Light breeze from south-southwest 4 mph
  17:00 23:00 70°F   30.01 inHg Light air from west-southwest 2 mph
  23:00 05:00 50°F   30.03 inHg Light breeze from east-northeast 5 mph
How Close Are We To this Month's Temperature Record ?
Updated Tuesday, Sep 27, 2016- 12:10:01 AM

Current Temperature: 71.0°F

September's High: Temperature Record 95.9°F - Set on Wed, Sep 9, 2015 - 1:44:00 PM
We are currently 24.9°F Less than this Month's record High

September's Low: Temperature Record 44.1°F - Set on Sun, Sep 22, 2013 - 7:41:00 AM
We are currently 26.9°F More than this Month's record Low

        Records began on 03 November 2011.

Weather History For Tuesday, September 27, 2016


On this Day - In Weather History ...
Data courtesy of weatherforyou.com
powered by Cumulus v1.9.3 (1059)
Ambient Weather VWS v14.00
Top Contact Website Map Copyright © 2007 - 2016 Foresthillweather.com Never base important decisions on this or any weather information obtained from the Internet